Location: Dakar
(4.2008°S, 13.3133°E)
Time: 14:35:00
(UTC+00:00)

Daily predictions for brighter satellites

Satellite Brightness Start Highest point End
(mag) Time Altitude Azimuth Time Altitude Azimuth Time Altitude Azimuth
Cosmos 1655 Rocket 4.1 17:24:36 10° S 17:30:49 64° E 17:37:03 10° NNE
ATLAS 5 CENTAUR R/B 2.3 17:27:22 10° S 17:31:03 28° ESE 17:34:31 10° NE
SWIFT 4.3 17:32:55 10° SSW 17:35:06 14° SSE 17:37:18 10° SE
Shenzhou-11 Module 2.6 17:35:30 10° NNW 17:37:42 29° NE 17:39:40 12° ESE
Yuri Rocket 4.1 17:33:37 10° NW 17:37:57 42° NNE 17:43:26 10° ESE
YAOGAN 1 3.8 17:35:39 10° SE 17:39:03 22° E 17:42:25 10° NNE
Okean-O 2.9 17:38:42 10° SSE 17:43:00 49° ENE 17:47:16 10° N
Lacrosse 4 Rocket 1.4 17:40:40 10° N 17:44:35 54° ENE 17:48:31 10° SSE
Cosmos 2292 Rocket 2.9 17:42:41 10° SSE 17:45:30 44° E 17:48:28 10° NNE
CZ-2C R/B 3.9 17:43:51 10° ENE 17:47:17 18° ESE 17:50:42 10° SE
USA 215 3.3 17:45:04 10° NE 17:51:26 58° SE 17:57:49 10° SSW
Exosat Rocket 4.1 17:49:13 10° N 17:53:54 41° ENE 17:59:23 10° SSE
GMS 1 Rocket B 4.5 17:49:47 10° SW 17:54:12 55° SSE 17:57:45 12° ENE
GEOS 3 Rocket 4.0 17:54:08 10° NE 17:59:07 42° ESE 18:04:02 10° S
H-2A R/B 3.6 18:00:49 16° E 18:01:58 17° ENE 18:05:23 10° NE
Cosmos 1544 Rocket 4.4 17:59:27 10° NNW 18:03:48 54° W 18:08:09 10° S
Cosmos 2322 Rocket 2.1 17:58:24 10° SSW 18:04:02 85° ESE 18:09:38 10° NNE
Cosmos 1953 2.5 18:00:16 10° NNE 18:04:09 48° E 18:07:26 14° SSE
BREEZE M DEB (TANK) 1.4 18:01:40 10° SSW 18:05:16 65° SE 18:07:12 13° NE
Cosmos 2297 Rocket 2.2 18:05:16 10° N 18:10:51 65° ENE 18:15:27 15° SSE
Meteor 2-5 Rocket 3.9 18:05:59 10° S 18:11:38 76° W 18:17:23 10° N
Skynet4D Del rocket 4.4 18:08:02 10° WNW 18:14:37 63° SSW 18:19:31 23° SE
CZ-4 R/B 1.5 18:10:59 10° S 18:15:07 77° WSW 18:19:08 10° NNW
SL-14 R/B 3.1 18:12:13 10° S 18:16:04 71° E 18:19:55 10° N
SJ 16-02 2.0 18:14:22 10° NNE 18:18:18 32° E 18:18:48 31° E
Cosmos 1726 2.0 18:18:01 10° N 18:21:40 84° W 18:24:05 20° S
Cosmos 2228 4.5 18:20:51 10° NNE 18:23:06 21° ENE 18:23:06 21° ENE
HJ-1C 4.2 18:28:00 36° NE 18:28:00 36° NE 18:30:24 10° N
SL-24 R/B - RUBIN 2 3.8 18:22:42 10° SSW 18:27:30 68° ESE 18:32:57 10° NNE
Cosmos 1417 Rocket 4.4 18:21:31 10° N 18:27:44 87° E 18:33:55 10° S
NOSS 3-3 (A) 4.0 18:25:11 10° S 18:30:29 41° ESE 18:35:41 10° NE
NOSS 3-3 (C) 4.0 18:25:18 10° S 18:30:35 40° ESE 18:35:47 10° NE
Meteor 2-8 Rocket 4.3 18:27:21 10° N 18:33:28 86° E 18:38:59 13° S
Ariane H10 2.6 18:30:30 10° W 18:34:01 76° S 18:37:38 33° ESE
Cosmos 1809 Rocket 4.4 18:28:43 10° S 18:34:57 88° E 18:41:07 10° N
MOS 1 Rocket 3.9 18:32:05 10° N 18:37:12 69° W 18:42:34 10° SSW
Meteor 1-24 Rocket 4.4 18:31:49 10° SSW 18:37:14 56° W 18:42:50 10° N
USA 234 3.2 18:35:52 29° SE 18:39:31 87° SW 18:46:05 10° NW
ASC 2 Rocket 4.2 18:35:18 10° W 18:40:45 35° SSW 18:41:49 32° S
Cosmos 2360 Rocket 2.1 18:36:18 10° SSW 18:41:56 87° WNW 18:47:33 10° NNE
SJ-11-01 4.2 18:41:42 61° ESE 18:42:12 65° ENE 18:46:48 10° N
Mugunghwa Rocket 4.2 18:42:42 10° WSW 18:49:03 70° NNW 18:53:10 25° NE
Cosmos 1626 4.3 18:47:10 10° SW 18:50:17 25° W 18:53:22 10° NNW
Cosmos 2082 3.5 18:45:39 10° N 18:51:13 69° ENE 18:51:49 64° ESE
GPS 2-17 Rocket1 3.3 18:46:48 10° WNW 18:51:20 58° NNE 18:51:20 58° NNE
H-2A R/B 2.5 18:44:37 10° WSW 18:52:53 55° SSW 18:52:53 55° SSW
Cosmos 2227 Rocket 2.9 18:48:27 10° NNW 18:53:53 51° WSW 18:56:57 25° S
GPS 2-12 Rocket1 3.2 18:51:38 10° WSW 18:56:04 75° WSW 18:56:04 75° WSW
CZ-2C R/B 3.2 18:56:24 49° S 18:58:07 89° W 19:03:54 10° NNW
ARGOS 3.4 19:01:08 52° NE 19:01:08 52° NE 19:05:32 10° N
SL-08 R/B 4.4 19:00:40 66° ESE 19:01:01 68° E 19:07:13 10° N
CZ-2C R/B 4.0 18:57:27 10° N 19:02:10 68° WNW 19:03:10 52° SW
SEDSat Delta rocket 4.0 19:05:53 10° WSW 19:11:17 63° NNW 19:12:09 56° N
Spelda 3.3 18:55:43 10° W 19:11:25 83° N 19:11:37 81° NE
ARIANE 5 DEB (SYLDA) 4.4 19:15:53 10° W 19:19:21 74° NW 19:19:21 74° NW
ARIANE 5 R/B 3.8 19:17:27 10° WNW 19:20:06 43° NW 19:20:06 43° NW
Ariane Rocket 4.4 19:29:27 33° NNW 19:29:27 33° NNW 19:32:11 10° NNW
CZ-2C R/B 4.4 19:22:55 10° NNW 19:27:17 27° WNW 19:31:39 10° SW
H-2A R/B 3.7 19:41:26 31° W 19:41:26 31° W 19:45:50 10° NW
CZ-3A R/B 4.3 20:04:52 10° WSW 20:21:33 35° NW 20:22:33 34° NNW
